Regional Weather Roundup
Issued by NWS Newport/Morehead, NC

Current Version | Previous Version | Graphics & Text | Print | Product List | Glossary Off
Versions: 1 2 3 4 5 6 7 8 9 10 11 12 13 14 15 16 17 18 19 20 21 22 23 24 25 26 27 28 29 30 31 32 33 34 35 36 37 38 39 40 41 42 43 44 45 46 47 48 49 50

000
ASUS42 KMHX 230022
RWRMHX
WEATHER ROUNDUP FOR EASTERN NORTH CAROLINA
NATIONAL WEATHER SERVICE NEWPORT/MOREHEAD CITY NC
700 PM EST SAT NOV 22 2014

NOTE: "FAIR" INDICATES FEW OR NO CLOUDS BELOW 12,000 FEET
WITH NO SIGNIFICANT WEATHER AND/OR OBSTRUCTIONS TO VISIBILITY

NCZ015>017-031-032-045>047-102-103-230100-
NORTH COAST

CITY           SKY/WX    TMP DP  RH WIND       PRES   REMARKS
EDENTON          N/A     37  32  81 CALM      30.38F
ELIZABETH CITY PTCLDY    40  31  70 SE6       30.39F
KITTY HAWK     CLEAR     45  39  78 S3        30.39F
MANTEO         CLEAR     45  40  81 CALM      30.40F

$$

NCZ045>047-081-094-103-104-230100-
CENTRAL COAST

CITY           SKY/WX    TMP DP  RH WIND       PRES   REMARKS
FRISCO         CLEAR     45  43  93 N5        30.40F
SWANQUARTER      N/A     39 N/A N/A E3        30.36S

$$

NCZ095-097-098-100-101-230100-
SOUTHERN COAST

CITY           SKY/WX    TMP DP  RH WIND       PRES   REMARKS
BEAUFORT       CLEAR     44  37  76 NE3       30.40F
CEDAR ISLAND     N/A     46 N/A N/A E3        30.41F
JACKSONVILLE   CLEAR     43  38  82 CALM      30.39F
PINEY ISLAND   CLEAR     50  42  74 E6        30.39F
WILMINGTON     CLEAR     45  41  86 CALM      30.38F


$$

NCZ011>013-027>030-043-044-078>080-089-090>093-098-230100-
COASTAL PLAIN

CITY           SKY/WX    TMP DP  RH WIND       PRES   REMARKS
AHOSKIE        CLEAR     33  23  68 CALM      30.38F
CLINTON        CLEAR     41  31  67 CALM      30.38S
ELIZABETHTOWN  CLEAR     46  35  65 CALM      30.37S
GOLDSBORO      CLEAR     37  29  73 CALM      30.35F
GREENVILLE     CLEAR     37  27  65 CALM      30.38F
HAVELOCK       CLEAR     42  37  82 SE3       30.40F
KENANSVILLE    CLEAR     36  31  82 CALM      30.39S
KINSTON        CLEAR     36  28  75 CALM      30.38F
NEW BERN       CLEAR     41  34  76 CALM      30.40F
RICHLANDS      CLEAR     39  34  81 CALM      30.39S
ROCKY MOUNT    CLEAR     36  24  62 CALM      30.37F
WASHINGTON     CLEAR     38  29  68 SE3       30.38F
WHITEVILLE     CLEAR     48  39  71 E3        30.37R

$$

AMZ130-135-150-152-154-156-158-170-250-252-270-ANZ085-086-088-633-658-670-230100-
MARINE OBSERVATIONS

STATION/POSITION TIME  TEMP    WIND        PRES    WAVE   SWELL
                       AIR SEA DIR/SP/G            HT/PER HT/PER
                 (UTC) (F)     (DEG/KT/KT) (MB)    (FT/S) (FT/S)
CHESAPEAKE LIGHT 0000   50     220/ 14/ 15 1029.2
64 E VA BEACH    0000   54 60  220/ 14/ 16 1029.1    2/ 8   2/ 8
DUCK             0000   48 54  180/  8/ 10 1028.3
2 E DUCK         0000      56                N/A     2/ 6
10 NE DUCK       0000      57                N/A     2/ 8
OREGON INLET     0000   47 52  180/  3/  4 1029.4
13E OREGON INLT  0000      61                N/A     2/ 9
HATTERAS CG      0000   48 52   30/  3/  3 1029.7
DIAMOND BUOY     0000   60      CALM  /  6 1029.8    3/ 9
17 S OCRACOKE    NOT AVBL
CAPE LOOKOUT     0000   51      20/  6/  7 1028.9
BEAUFORT LAB     0000   48 53   40/  4/  6 1028.2
30 SE NEW RIVER  0000   59 69   70/ 14/ 17 1028.0    3/ 9   2/ 9
5 SE WRIGHTSVLE  0000   54 60   80/ 10/ 12 1028.5
225 S CAPE HAT   NOT AVBL
41 SE CHARLESTON 0000   68 76  110/  8/ 12 1026.4    4/ 7   3/ 7

$$


USA.gov is the U.S. government's official web portal to all federal, state and local government web resources and services.